Home   Weather   Bengaluru   Past weeks

Flag for India Past Weather in Bengaluru, Karnataka, India — Yesterday and Last 2 Weeks

Now
75 °F

Passing clouds.


Feels Like: 77 °F
Forecast: 64 / 80 °F
Wind: 5 mph from Northeast

Location: Bangalore / Hindustan

Current Time: Dec 5, 2016 at 8:14:27 pm

Latest Report: Dec 5, 2016 at 7:30 pm


Visibility: N/A

Pressure: 30.04 "Hg (27.16 "Hg at 876m altitude)

Humidity: 65%

Dew Point: 63 °F

Location of BengaluruLocation

Past Weather in Bengaluru — Graph

°F

Bengaluru Temperature Yesterday

Maximum temperature yesterday: 82 °F (at 2:00 pm)
Minimum temperature yesterday: 66 °F (at 5:30 am)
Average temperature yesterday: 75 °F

High & Low Weather Summary for the Past Weeks

 TemperatureHumidityPressure
High88 °F (Nov 22, 3:00 pm)100% (Dec 2, 5:30 am)30.15 "Hg (Dec 2, 5:30 am)
Low48 °F (Dec 2, 5:30 am)15% (Nov 22, 4:00 pm)29.89 "Hg (Nov 22, 3:30 pm)
Average74 °F54%30.01 "Hg
* Reported Nov 20 6:30 pm — Dec 5 6:30 pm, Bengaluru, Weather by CustomWeather, © 2016

Note: Actual official high and low records may vary slightly from our data, if they occured in-between our weather recording intervals... More about our weather records

Advertising

Bengaluru Weather History for the Previous 24 Hours

Scroll right to see more
 ConditionsComfort  
Time TempWeatherWind HumidityBarometerVisibility
6:30 pm
Mon, Dec 5
77 °FPassing clouds.5 mph61%30.01 "HgN/A
5:30 pm79 °FPassing clouds.7 mph54%29.98 "HgN/A
5:00 pm81 °FPassing clouds.7 mph51%29.98 "HgN/A
4:30 pm81 °FScattered clouds.6 mph51%29.98 "HgN/A
4:00 pm81 °FScattered clouds.8 mph54%29.98 "HgN/A
3:30 pm81 °FScattered clouds.8 mph51%29.98 "HgN/A
3:00 pm81 °FScattered clouds.6 mph54%29.98 "HgN/A
2:30 pm82 °FScattered clouds.7 mph51%29.98 "HgN/A
2:00 pm82 °FScattered clouds.5 mph51%29.98 "HgN/A
1:30 pm82 °FScattered clouds.9 mph51%30.01 "HgN/A
1:00 pm82 °FScattered clouds.5 mph51%30.01 "HgN/A
12:30 pm81 °FScattered clouds.10 mph51%30.04 "HgN/A
12:00 pm81 °FScattered clouds.12 mph54%30.04 "HgN/A
11:30 am77 °FScattered clouds.12 mph54%30.07 "HgN/A
11:00 am79 °FScattered clouds.12 mph58%30.07 "HgN/A
10:30 am79 °FScattered clouds.12 mph58%30.09 "HgN/A
10:00 am77 °FScattered clouds.9 mph65%30.09 "HgN/A
9:30 am77 °FScattered clouds.9 mph65%30.09 "HgN/A
9:00 am73 °FScattered clouds.7 mph74%30.09 "HgN/A
8:30 am72 °FPassing clouds.7 mph78%30.09 "HgN/A
8:00 am70 °FScattered clouds.6 mph83%30.09 "HgN/A
7:30 am68 °FPassing clouds.3 mph94%30.07 "HgN/A
7:00 am66 °FPassing clouds.5 mph94%30.07 "HgN/A
6:30 am66 °FPassing clouds.5 mph94%30.04 "HgN/A
6:00 am68 °FPassing clouds.5 mph88%30.04 "Hg5 mi
5:30 am68 °FPassing clouds.6 mph88%30.04 "Hg5 mi
12:30 am70 °FPassing clouds.9 mph88%30.09 "Hg5 mi
11:30 pm
Sun, Dec 4
70 °FPassing clouds.9 mph88%30.09 "Hg5 mi
10:30 pm70 °FPassing clouds.9 mph94%30.12 "Hg5 mi
9:30 pm72 °FPassing clouds.7 mph88%30.12 "Hg5 mi
8:30 pm72 °FPassing clouds.9 mph88%30.09 "Hg5 mi
Weather by CustomWeather, © 2016

See weather overviewHow to use our weather pages